Temp
69 69 68 67 61 54 51 54 60 59 61 63 63 63 63 63 62 58 70 72 73 75 76 77 75 76 76 76 75 75 76 77 77 77 76 75 75 75 75 75 75 75 76 76 75 76 76 75 75
68 71 67 60 54 49 51 55 56 59 62 59 62 62 63 61 65 66 69 72 74 75 76 77 73 75 76 76 75 75 76 76 77 76 75 75 75 75 75 75 75 75 75 76 76 75 75 74 74
69 69 64 55 48 50 50 56 59 60 58 62 60 61 62 62 66 68 72 72 74 74 75 75 72 75 75 75 75 75 76 76 76 76 75 75 74 74 74 74 74 74 75 75 75 75 74 73 73
67 66 60 55 52 55 57 59 59 58 60 61 61 60 63 67 67 70 70 72 73 73 75 72 73 74 75 75 75 75 75 75 76 76 75 74 74 73 73 73 73 73 74 74 74 73 73 72 71
62 60 53 50 52 55 56 60 57 58 61 61 61 60 60 66 68 69 69 71 72 73 74 74 72 73 74 75 75 75 75 75 75 75 74 73 73 73 73 73 73 73 73 73 72 72 71 70 70
60 57 50 48 51 56 59 60 60 60 60 59 61 57 61 66 67 68 70 71 73 73 73 74 70 71 72 73 74 74 74 74 74 74 73 73 73 72 73 73 73 72 72 72 72 71 70 69 68
58 53 50 48 50 54 59 58 58 60 59 61 61 59 62 64 66 66 69 70 72 73 71 73 74 72 68 70 71 72 73 73 73 73 72 71 71 71 71 71 72 72 72 71 70 69 69 68 67
54 53 48 47 50 53 59 58 60 61 60 60 62 61 62 64 63 63 65 66 67 69 71 72 73 73 74 73 67 69 70 70 71 70 68 67 67 67 68 67 70 71 70 69 69 68 67 66 65
56 51 47 50 49 55 56 58 59 60 59 59 60 61 62 61 61 61 62 63 64 64 66 69 71 72 72 71 70 67 67 67 67 67 65 64 70 70 69 66 68 68 68 68 67 66 65 63 62
53 47 51 54 53 55 57 58 59 59 57 58 59 59 59 58 59 60 61 62 62 62 63 66 68 71 71 69 69 70 70 70 71 69 67 68 67 67 67 64 64 66 65 66 65 63 60 60 60
51 51 53 55 56 57 56 55 58 58 55 60 61 61 57 56 57 59 60 62 63 63 62 63 64 65 69 69 69 68 68 67 70 69 69 67 66 65 64 64 63 61 60 63 62 61 61 59 59
51 53 54 56 56 55 55 57 55 56 62 61 61 61 56 56 57 59 60 60 60 60 61 61 62 62 64 67 67 68 67 69 67 68 68 66 66 64 63 63 61 60 59 58 58 58 58 57 57
51 52 54 55 54 54 54 55 56 56 60 58 57 56 56 56 58 57 58 59 59 59 59 60 59 61 62 63 64 66 66 67 68 68 66 66 64 63 62 61 60 60 60 59 57 56 55 55 55
51 52 54 54 54 54 54 52 53 57 56 56 56 57 55 55 57 55 55 58 56 57 58 58 58 60 60 62 62 66 66 66 67 66 67 66 65 63 62 60 58 59 58 58 57 55 53 52 53
51 50 52 52 52 54 53 51 52 57 54 56 55 55 54 54 54 56 59 57 57 56 56 56 57 58 59 60 61 64 64 63 64 66 67 67 65 65 61 59 58 59 56 57 55 54 53 51 50
47 46 44 49 50 51 53 47 55 53 53 56 54 53 52 53 55 56 55 56 55 54 54 54 56 57 57 58 61 61 62 61 61 63 65 65 66 65 62 58 56 56 54 55 55 52 51 49 48
42 40 40 46 50 49 49 48 53 51 50 52 53 53 52 53 53 54 54 55 54 54 53 53 54 55 58 59 58 58 59 57 57 58 61 63 62 61 60 57 55 55 52 52 53 50 51 46 47
40 38 39 42 47 45 45 47 52 52 51 51 53 53 52 52 56 59 55 53 53 52 52 53 53 54 55 56 55 55 53 53 54 54 55 58 60 60 57 55 53 53 51 50 51 49 49 48 48
43 39 40 43 48 46 45 45 53 53 48 49 53 52 54 55 61 56 54 53 50 50 50 51 52 53 53 54 52 51 51 50 50 51 52 53 55 55 55 53 51 51 51 51 50 47 45 45 46
42 39 39 43 45 46 44 43 49 53 53 55 57 59 57 57 54 54 51 49 50 51 50 50 52 52 54 55 55 54 51 48 49 49 49 50 51 54 53 52 50 50 47 47 47 47 46 46 45
40 39 38 42 42 41 40 39 41 48 50 53 55 58 60 59 58 53 48 48 49 48 48 50 52 52 54 52 50 47 48 47 46 46 46 46 48 49 50 51 49 48 50 47 48 48 47 44 41
38 44 43 40 39 35 39 35 42 48 50 51 56 55 55 53 52 52 48 47 48 49 50 50 52 52 53 50 50 50 49 47 47 47 45 44 45 47 45 45 46 45 47 47 47 48 47 45 42
42 43 42 40 36 34 33 33 38 42 46 53 60 56 53 52 51 51 48 50 49 47 48 50 51 51 53 50 51 51 50 50 47 43 42 41 42 43 44 44 43 43 45 46 45 43 42 46 43
45 42 39 34 34 29 35 36 38 41 47 51 55 53 51 51 50 48 47 46 45 44 47 49 50 50 48 50 49 51 50 44 43 41 40 40 40 39 40 40 40 41 42 43 44 42 42 42 42
42 40 32 28 25 31 32 32 43 48 49 50 56 52 48 48 49 47 44 42 41 42 45 48 50 50 49 48 49 50 47 46 45 42 42 39 38 38 38 39 39 41 41 40 41 41 41 40 41
39 40 32 23 24 30 31 30 41 46 51 49 48 46 47 48 46 44 43 41 41 42 45 47 48 49 49 49 49 49 47 46 47 45 44 43 43 41 40 38 39 39 39 39 39 39 38 39 38
38 35 43 35 17 23 33 37 44 45 46 47 46 44 48 48 46 44 42 40 40 41 44 47 49 49 47 48 47 46 45 45 44 43 43 43 42 40 38 38 38 38 38 38 39 38 36 37 37
41 43 34 31 23 19 31 32 38 45 46 47 45 48 47 45 44 42 40 39 40 41 44 48 49 47 46 47 46 44 44 44 43 41 40 39 38 38 37 36 36 37 37 37 37 35 36 36 35
37 36 35 37 31 25 21 37 41 45 47 48 48 48 48 45 45 42 40 39 39 40 41 46 45 43 44 45 44 43 43 43 41 40 38 38 37 37 36 36 35 35 35 36 35 35 35 35 34
35 37 37 32 27 28 28 39 44 44 44 46 46 47 46 45 44 41 40 38 37 38 39 41 43 42 43 44 43 42 41 40 39 39 37 37 36 35 35 35 34 35 35 35 35 34 34 34 33
MSLP
1016.03 1015.96 1016.19 1016.55 1018.17 1019.35 1019.58 1019.64 1019.42 1019.44 1019.59 1019.52 1019.60 1019.76 1019.75 1019.83 1020.00 1020.54 1020.03 1020.10 1019.98 1020.15 1020.51 1020.76 1021.04 1021.35 1021.68 1021.88 1022.13 1022.28 1022.33 1022.54 1022.71 1022.87 1023.02 1023.13 1023.27 1023.32 1023.23 1023.31 1023.23 1023.23 1023.35 1023.24 1023.41 1023.31 1023.27 1023.42 1023.54
1016.19 1016.01 1016.46 1017.61 1018.71 1019.78 1019.91 1019.59 1019.50 1019.33 1019.38 1019.61 1019.77 1019.84 1019.89 1019.96 1019.91 1019.96 1020.04 1020.08 1019.97 1020.20 1020.56 1020.84 1021.19 1021.41 1021.67 1021.93 1022.11 1022.30 1022.50 1022.66 1022.88 1023.16 1023.35 1023.47 1023.47 1023.59 1023.60 1023.68 1023.73 1023.64 1023.76 1023.58 1023.72 1023.70 1023.60 1023.90 1024.07
1016.22 1016.11 1017.26 1018.27 1019.66 1019.85 1019.56 1019.30 1019.27 1019.50 1019.69 1019.72 1020.00 1020.03 1019.94 1019.89 1019.90 1019.81 1019.75 1019.82 1020.05 1020.33 1020.62 1020.94 1021.23 1021.44 1021.66 1021.91 1022.17 1022.38 1022.60 1022.75 1023.10 1023.38 1023.54 1023.65 1023.74 1023.88 1023.90 1024.04 1024.07 1024.03 1023.96 1024.00 1024.18 1023.99 1024.11 1024.43 1024.60
1016.43 1016.94 1018.67 1018.80 1019.46 1019.37 1019.28 1019.06 1019.27 1019.82 1019.84 1019.78 1019.91 1020.16 1020.10 1019.82 1019.81 1019.83 1019.79 1019.87 1020.04 1020.51 1020.82 1021.09 1021.26 1021.45 1021.77 1022.05 1022.26 1022.52 1022.78 1022.96 1023.16 1023.52 1023.76 1023.91 1024.02 1024.23 1024.27 1024.39 1024.35 1024.37 1024.41 1024.60 1024.64 1024.60 1024.81 1024.94 1025.17
1017.24 1017.94 1019.01 1019.34 1019.37 1019.21 1019.12 1019.07 1019.34 1019.69 1019.69 1019.80 1019.91 1020.04 1020.05 1019.78 1019.79 1019.86 1019.89 1019.89 1020.08 1020.46 1020.83 1021.15 1021.38 1021.61 1021.87 1022.15 1022.41 1022.63 1022.88 1023.10 1023.38 1023.79 1024.03 1024.17 1024.36 1024.52 1024.58 1024.56 1024.71 1024.90 1024.89 1025.09 1025.05 1025.20 1025.40 1025.51 1025.83
1017.96 1018.59 1019.68 1019.72 1019.36 1018.99 1018.86 1018.92 1019.25 1019.54 1019.63 1019.87 1019.99 1020.14 1019.97 1019.72 1019.80 1019.83 1019.92 1020.03 1020.10 1020.35 1020.77 1021.06 1021.35 1021.61 1021.88 1022.13 1022.46 1022.70 1023.00 1023.26 1023.51 1023.92 1024.17 1024.33 1024.51 1024.66 1024.76 1024.93 1025.16 1025.24 1025.34 1025.40 1025.60 1025.73 1025.95 1026.24 1026.37
1018.23 1019.20 1019.97 1019.71 1019.43 1019.01 1018.66 1018.86 1019.17 1019.26 1019.50 1019.64 1019.75 1020.13 1019.94 1019.87 1019.80 1019.95 1020.03 1020.06 1020.21 1020.44 1020.67 1020.88 1021.19 1021.52 1021.82 1022.10 1022.37 1022.66 1022.96 1023.36 1023.60 1023.96 1024.28 1024.50 1024.70 1024.89 1025.12 1025.29 1025.40 1025.53 1025.68 1025.78 1025.99 1026.29 1026.56 1026.69 1026.96
1018.49 1019.52 1020.24 1019.82 1019.60 1018.89 1018.49 1018.77 1018.59 1019.02 1019.28 1019.59 1019.57 1019.71 1019.76 1019.53 1019.91 1020.20 1020.39 1020.47 1020.58 1020.65 1020.65 1020.78 1021.09 1021.42 1021.74 1022.00 1022.29 1022.63 1022.92 1023.31 1023.67 1024.04 1024.41 1024.71 1025.00 1025.25 1025.44 1025.56 1025.66 1025.80 1026.01 1026.28 1026.59 1026.84 1027.07 1027.34 1027.60
1018.56 1019.69 1020.18 1019.62 1019.59 1018.57 1018.54 1018.75 1018.80 1018.86 1019.16 1019.52 1019.41 1019.45 1019.59 1019.78 1020.18 1020.43 1020.70 1020.85 1020.94 1021.05 1020.99 1020.89 1021.00 1021.24 1021.51 1021.81 1022.12 1022.53 1022.80 1023.12 1023.49 1023.99 1024.36 1024.66 1024.91 1025.36 1025.59 1025.74 1025.93 1026.16 1026.43 1026.78 1027.12 1027.41 1027.65 1027.94 1028.28
1018.72 1019.83 1019.32 1018.72 1018.52 1018.29 1018.24 1018.43 1018.59 1018.95 1019.11 1019.34 1019.34 1019.32 1019.66 1020.05 1020.26 1020.31 1020.44 1020.59 1020.76 1020.96 1021.16 1021.08 1021.05 1021.05 1021.28 1021.64 1022.00 1022.31 1022.62 1022.99 1023.42 1023.82 1024.25 1024.59 1024.95 1025.33 1025.71 1026.06 1026.31 1026.52 1026.76 1027.11 1027.46 1027.86 1028.27 1028.51 1028.96
1018.60 1018.85 1018.58 1018.24 1018.10 1018.08 1018.17 1018.31 1018.44 1018.62 1018.99 1018.52 1018.57 1018.75 1019.58 1020.06 1020.20 1020.18 1020.20 1020.25 1020.33 1020.67 1021.07 1021.17 1021.20 1021.30 1021.23 1021.47 1021.84 1022.16 1022.49 1022.88 1023.38 1023.77 1024.24 1024.66 1025.07 1025.53 1025.90 1026.31 1026.72 1027.07 1027.24 1027.48 1027.90 1028.26 1028.70 1029.16 1029.44
1018.43 1018.34 1018.33 1018.03 1017.94 1018.13 1018.13 1018.17 1018.46 1018.50 1017.63 1017.53 1017.97 1018.33 1019.16 1019.64 1019.78 1019.66 1019.77 1020.06 1020.32 1020.60 1020.86 1021.11 1021.33 1021.56 1021.64 1021.74 1021.73 1021.93 1022.29 1022.60 1023.17 1023.63 1024.08 1024.57 1025.09 1025.50 1025.92 1026.39 1026.89 1027.28 1027.66 1027.93 1028.35 1028.85 1029.26 1029.72 1030.09
1018.24 1018.36 1018.28 1018.09 1018.07 1018.06 1018.08 1018.14 1018.30 1017.84 1017.44 1017.66 1018.03 1018.48 1018.76 1019.14 1019.24 1019.42 1019.72 1020.05 1020.33 1020.58 1020.79 1021.03 1021.34 1021.51 1021.74 1021.89 1021.97 1021.89 1022.02 1022.38 1022.70 1023.25 1023.71 1024.15 1024.74 1025.26 1025.78 1026.33 1026.89 1027.32 1027.77 1028.25 1028.56 1029.22 1029.79 1030.28 1030.70
1018.38 1018.48 1018.43 1018.20 1018.18 1018.15 1018.22 1018.31 1018.27 1017.10 1017.16 1017.62 1018.05 1018.29 1018.61 1018.80 1018.75 1019.43 1019.76 1019.77 1020.03 1020.25 1020.58 1020.92 1021.20 1021.39 1021.56 1021.65 1021.83 1021.76 1021.90 1022.01 1022.35 1022.86 1023.23 1023.77 1024.25 1024.98 1025.50 1026.19 1026.86 1027.30 1027.81 1028.37 1028.72 1029.29 1030.04 1030.67 1031.20
1018.65 1018.90 1018.81 1018.37 1018.37 1018.43 1018.52 1018.60 1017.82 1016.97 1017.39 1017.68 1018.03 1018.21 1018.42 1018.48 1018.88 1018.67 1018.63 1019.16 1019.52 1019.90 1020.35 1020.67 1020.93 1021.18 1021.43 1021.62 1021.71 1021.72 1021.82 1022.08 1022.12 1022.33 1022.89 1023.40 1023.88 1024.45 1025.25 1025.91 1026.68 1027.16 1027.79 1028.17 1028.85 1029.46 1030.20 1030.88 1031.48
1019.52 1019.64 1019.76 1018.85 1018.80 1018.67 1018.89 1017.85 1017.32 1017.23 1017.55 1017.40 1017.77 1018.00 1018.08 1018.03 1018.05 1018.23 1018.50 1018.82 1019.16 1019.66 1020.05 1020.44 1020.71 1020.90 1021.12 1021.32 1021.46 1021.72 1021.76 1022.01 1022.20 1022.10 1022.44 1022.92 1023.48 1024.09 1024.94 1025.66 1026.45 1027.15 1027.92 1028.13 1028.81 1029.30 1030.21 1031.20 1031.88
1020.78 1020.50 1020.41 1019.49 1019.00 1019.02 1019.16 1018.26 1017.37 1017.31 1017.67 1017.57 1017.39 1017.40 1017.53 1017.32 1017.51 1017.35 1017.77 1018.11 1018.67 1019.18 1019.68 1020.11 1020.39 1020.60 1020.85 1021.01 1021.29 1021.62 1021.83 1022.02 1022.26 1022.38 1022.14 1022.59 1023.17 1023.88 1024.46 1025.36 1026.12 1026.90 1027.63 1028.62 1028.65 1029.74 1030.18 1031.25 1032.33
1020.70 1020.90 1020.56 1020.05 1019.41 1019.45 1019.46 1018.36 1017.54 1017.39 1017.55 1017.17 1016.96 1016.69 1016.55 1016.48 1015.76 1015.85 1016.54 1017.26 1018.04 1018.70 1019.22 1019.60 1020.03 1020.33 1020.64 1020.92 1021.38 1021.76 1022.04 1022.30 1022.30 1022.47 1022.44 1022.47 1022.81 1023.45 1024.29 1025.28 1026.02 1026.68 1027.38 1028.50 1028.91 1029.39 1030.84 1031.30 1032.22
1020.24 1020.56 1020.60 1020.08 1019.40 1019.62 1019.09 1018.61 1017.28 1016.90 1017.00 1016.40 1015.89 1015.65 1015.31 1014.97 1013.97 1014.86 1015.53 1016.38 1017.41 1018.24 1018.71 1019.07 1019.54 1019.90 1020.28 1020.67 1021.33 1021.82 1022.00 1022.37 1022.48 1022.69 1022.65 1022.60 1022.82 1023.28 1023.94 1024.87 1026.00 1026.47 1026.94 1027.68 1028.73 1029.66 1030.40 1032.08 1032.56
1020.29 1020.57 1020.64 1020.03 1019.65 1019.89 1019.02 1018.32 1017.20 1016.12 1015.35 1014.64 1014.33 1013.91 1013.68 1013.64 1013.51 1013.99 1014.84 1015.90 1016.40 1016.95 1017.78 1018.48 1018.76 1019.24 1019.69 1020.07 1020.70 1021.20 1021.81 1022.39 1022.44 1022.80 1022.99 1022.88 1022.94 1023.24 1023.79 1024.47 1025.25 1026.19 1027.21 1028.01 1028.51 1029.00 1030.65 1031.76 1032.05
1020.32 1020.49 1020.47 1020.35 1020.05 1020.00 1019.66 1017.75 1016.65 1014.66 1014.20 1013.55 1012.89 1012.14 1012.32 1012.51 1012.87 1013.64 1014.65 1015.08 1015.85 1016.38 1016.73 1017.25 1017.87 1018.51 1019.14 1019.76 1020.53 1021.50 1022.10 1022.47 1022.74 1022.85 1023.23 1023.22 1023.29 1023.11 1023.84 1024.14 1024.88 1026.01 1026.50 1027.13 1027.76 1028.43 1028.99 1030.44 1031.96
1019.82 1019.57 1019.93 1020.44 1020.91 1020.70 1019.86 1017.74 1016.22 1014.66 1013.64 1012.89 1011.44 1011.16 1011.34 1012.00 1012.48 1013.21 1013.87 1014.47 1014.87 1015.24 1016.19 1016.84 1017.43 1017.97 1018.60 1019.13 1019.94 1020.32 1020.67 1021.40 1021.87 1022.45 1022.72 1023.22 1023.45 1023.64 1023.93 1024.26 1024.87 1025.76 1026.26 1026.54 1027.25 1028.04 1028.72 1029.31 1030.55
1019.24 1019.43 1020.10 1020.59 1021.09 1021.06 1020.10 1019.75 1014.62 1014.42 1013.60 1012.09 1010.61 1010.48 1011.09 1011.58 1012.03 1012.42 1013.04 1013.48 1014.21 1015.06 1015.67 1016.38 1017.03 1017.65 1018.17 1018.94 1019.47 1019.95 1020.44 1020.91 1021.67 1022.41 1022.99 1023.54 1023.86 1023.88 1024.11 1024.35 1025.15 1025.71 1026.23 1026.32 1027.09 1028.28 1028.88 1029.35 1030.13
1019.10 1019.76 1020.67 1021.37 1021.65 1020.88 1018.91 1018.40 1014.86 1013.81 1012.22 1011.45 1010.51 1010.78 1011.31 1011.76 1012.17 1012.63 1013.04 1013.57 1014.33 1015.07 1015.70 1016.14 1016.58 1016.96 1017.58 1018.33 1018.98 1019.41 1019.93 1020.79 1021.81 1022.48 1023.17 1023.64 1023.84 1024.27 1024.57 1024.71 1025.18 1025.63 1025.84 1026.20 1026.93 1027.96 1028.62 1029.04 1029.64
1018.96 1019.89 1021.10 1021.81 1022.10 1019.69 1018.42 1017.92 1013.89 1012.59 1011.58 1011.01 1010.61 1010.94 1011.50 1011.89 1012.47 1012.98 1013.51 1014.02 1014.43 1014.99 1015.52 1016.13 1016.58 1016.93 1017.46 1018.06 1018.52 1019.05 1019.70 1020.41 1021.07 1021.71 1022.64 1023.47 1023.96 1024.32 1024.47 1024.76 1025.04 1025.36 1025.79 1026.41 1027.09 1027.79 1028.40 1028.94 1029.42
1018.66 1018.78 1019.80 1020.64 1021.46 1019.99 1018.79 1016.09 1012.39 1011.22 1010.75 1010.47 1010.96 1011.16 1011.49 1011.84 1012.58 1013.12 1013.64 1014.12 1014.40 1014.79 1015.25 1015.68 1016.24 1016.78 1017.40 1017.87 1018.36 1018.90 1019.45 1020.08 1020.71 1021.23 1021.92 1022.59 1022.96 1023.22 1023.83 1024.28 1024.52 1025.25 1025.92 1026.72 1027.46 1028.13 1028.89 1029.43 1029.84
1018.00 1018.46 1018.18 1019.54 1021.34 1020.70 1017.15 1014.03 1012.03 1010.95 1010.56 1010.66 1010.92 1011.40 1011.46 1011.77 1012.44 1012.95 1013.67 1014.15 1014.52 1014.84 1015.07 1015.35 1015.90 1016.44 1017.10 1017.73 1018.45 1019.13 1019.67 1020.20 1020.80 1021.50 1022.08 1022.70 1023.09 1023.63 1024.33 1024.50 1024.63 1025.46 1026.06 1026.84 1027.46 1028.15 1028.85 1029.53 1030.04
1016.52 1016.92 1018.34 1019.15 1020.33 1019.65 1015.94 1014.41 1012.26 1010.96 1010.31 1010.12 1010.84 1011.13 1011.25 1011.61 1012.41 1013.10 1013.74 1014.14 1014.39 1014.59 1014.84 1015.27 1015.64 1016.19 1016.62 1017.16 1017.85 1018.58 1019.13 1019.73 1020.40 1021.11 1021.65 1022.42 1023.11 1023.71 1024.50 1025.05 1025.43 1026.21 1026.56 1027.40 1027.92 1028.75 1029.40 1029.68 1030.59
1016.81 1016.68 1017.04 1017.57 1018.20 1017.76 1016.38 1012.12 1010.20 1009.72 1009.65 1010.01 1010.46 1010.54 1011.22 1011.73 1012.56 1013.27 1013.65 1014.03 1014.48 1014.63 1014.89 1014.99 1015.27 1015.63 1016.12 1016.55 1017.39 1018.19 1018.94 1019.64 1020.32 1021.10 1021.81 1022.56 1023.17 1023.80 1024.34 1024.85 1025.48 1026.14 1026.72 1027.67 1028.28 1028.95 1029.60 1030.20 1030.86
1015.76 1015.57 1015.64 1016.04 1017.31 1016.95 1015.69 1009.79 1009.31 1009.24 1009.32 1009.62 1010.20 1010.59 1011.03 1011.41 1012.31 1013.07 1013.63 1014.08 1014.47 1014.44 1014.51 1014.86 1015.33 1015.71 1015.88 1016.20 1016.94 1017.61 1018.14 1018.90 1019.89 1020.58 1021.52 1022.09 1022.79 1023.76 1024.44 1024.78 1025.56 1026.02 1026.68 1027.14 1028.00 1028.84 1029.54 1030.07 1030.86
Wind_Speed
5 3 2 5 4 5 1 3 1 3 2 1 3 4 5 2 3 2 1 8 6 12 10 12 11 13 13 12 12 11 13 14 14 14 14 14 14 15 15 15 15 15 14 15 15 16 13 19 20
2 1 5 3 5 2 4 2 5 4 3 6 3 2 1 2 1 3 6 8 11 12 10 11 11 12 12 12 12 11 14 14 13 14 13 14 15 15 15 15 15 15 14 15 16 14 18 20 19
2 4 4 5 3 4 4 5 5 2 5 2 3 1 4 2 1 5 1 9 12 11 10 10 11 13 13 12 12 12 13 14 14 13 13 14 15 15 15 15 15 15 16 16 14 17 19 19 20
2 4 5 5 3 3 3 3 5 6 3 2 2 2 2 1 2 1 4 11 13 11 10 10 11 13 12 11 12 12 12 14 16 13 13 14 15 14 15 15 16 16 16 17 16 19 19 20 20
5 3 4 3 3 3 4 2 6 6 2 3 2 3 2 2 2 1 7 10 13 12 10 11 10 12 13 12 11 12 13 14 15 14 14 15 15 15 15 16 16 16 17 17 18 19 19 20 19
4 3 4 2 4 3 3 5 6 4 2 2 2 5 3 1 2 3 7 9 9 12 11 10 11 11 12 13 12 12 13 15 16 15 15 14 15 15 16 16 16 17 17 18 19 19 20 20 21
6 5 4 4 3 3 4 7 5 6 3 4 4 5 2 2 4 4 7 6 5 6 7 10 11 11 11 12 11 11 13 13 16 15 14 13 13 14 15 15 17 18 18 19 19 19 20 21 22
6 6 3 3 4 5 4 6 1 6 6 2 3 4 4 4 7 6 5 5 4 4 4 7 10 9 9 8 11 11 12 13 13 13 12 12 12 12 12 12 16 19 19 19 19 20 21 22 22
3 6 2 5 7 5 4 5 1 1 5 3 5 3 1 3 7 6 4 4 4 3 4 4 8 9 8 7 10 12 14 15 15 13 13 11 9 11 11 12 16 19 19 20 20 20 21 22 21
6 4 9 5 5 3 3 4 7 4 3 4 4 5 2 5 5 8 8 10 6 6 4 4 4 9 8 4 5 6 7 7 9 9 10 5 7 7 9 10 14 17 19 20 20 21 19 15 9
3 5 4 3 3 3 2 2 6 6 4 8 10 5 6 6 7 9 9 8 10 6 5 5 4 3 5 5 4 3 3 4 6 10 8 6 6 6 5 5 5 6 9 8 11 11 9 12 9
1 1 4 1 2 3 3 3 3 7 8 2 8 3 7 11 13 14 13 10 8 7 8 7 6 4 4 2 2 3 4 5 6 8 10 7 5 6 6 5 5 6 4 8 8 7 11 13 13
2 1 2 2 1 3 1 5 6 9 10 4 2 6 10 11 12 6 5 5 6 8 7 8 6 5 4 4 3 2 4 6 8 8 9 8 7 6 6 6 5 6 6 6 8 8 9 12 13
1 1 4 3 2 3 3 1 1 5 1 6 5 8 8 12 15 4 6 10 10 7 8 7 7 5 5 5 5 5 3 4 7 8 10 10 8 7 7 7 6 6 6 6 7 9 9 9 10
2 3 5 3 1 4 4 6 11 6 1 6 9 8 8 11 6 15 14 13 11 7 6 8 7 6 5 5 5 5 4 3 5 8 12 12 10 10 9 8 7 8 6 12 10 11 10 9 10
4 5 3 2 3 2 4 11 8 3 5 12 8 8 8 10 13 11 8 10 9 7 9 7 6 7 6 6 5 4 4 3 3 5 8 12 12 12 11 8 8 8 6 8 9 9 10 9 8
6 3 4 9 6 2 3 8 6 2 3 9 9 9 9 11 10 13 12 12 10 10 9 9 9 9 8 7 5 4 5 3 3 1 5 11 11 11 9 8 9 10 9 6 9 8 10 10 10
6 4 4 5 2 2 4 15 13 8 5 11 10 10 10 12 19 14 14 12 10 9 9 8 8 9 8 5 4 3 2 2 2 2 2 7 9 12 10 8 10 9 9 7 8 13 8 10 11
6 4 4 5 4 4 9 10 17 9 7 12 14 15 16 16 16 10 12 12 10 9 11 11 11 10 9 6 5 4 4 2 2 2 3 5 8 10 12 10 10 9 10 12 12 12 16 10 11
4 3 6 7 3 6 9 13 14 16 13 15 17 18 18 16 9 9 8 11 14 14 13 12 13 13 10 7 5 3 3 1 2 2 2 3 6 10 10 12 12 11 9 11 13 14 10 7 7
5 6 6 9 3 3 5 10 8 8 8 12 18 22 17 17 17 8 9 13 11 14 17 15 15 14 11 9 7 4 5 3 2 2 2 2 5 7 10 11 12 10 10 12 14 13 12 11 5
6 9 5 2 2 5 1 11 5 7 10 8 17 12 13 10 8 5 9 10 14 16 11 12 13 14 11 12 10 10 6 6 4 4 3 3 3 6 9 8 10 11 8 12 12 11 9 10 8
6 6 6 3 3 4 2 1 7 1 7 17 15 9 8 8 9 10 10 10 9 10 13 13 13 13 12 11 11 9 7 4 5 4 6 4 3 3 6 11 9 9 7 10 13 10 9 6 6
7 6 5 5 2 6 10 9 5 6 10 6 8 3 4 3 5 5 3 5 5 7 10 12 14 14 13 14 11 12 11 9 8 6 6 4 3 3 3 6 7 7 9 11 10 8 9 8 5
3 6 2 4 1 10 3 4 7 8 9 8 10 2 2 1 3 3 2 4 6 10 11 11 13 13 12 13 13 12 10 12 12 12 9 9 6 4 8 8 9 7 8 8 9 9 8 7 7
9 9 8 8 5 6 1 10 8 9 11 9 7 3 5 7 3 3 4 5 6 9 10 12 13 12 12 11 11 9 10 7 7 10 9 8 8 8 9 8 10 10 10 9 8 6 6 7 6
7 8 5 2 3 2 7 9 8 10 11 9 5 2 7 6 6 5 4 5 6 8 11 12 14 15 12 11 8 7 7 8 7 8 7 5 5 5 7 8 11 10 11 10 10 8 9 8 7
6 8 4 2 3 6 6 7 9 6 10 7 5 8 6 3 3 3 5 6 6 7 9 9 10 12 12 11 10 9 10 10 9 9 9 8 6 9 9 8 9 9 10 9 9 8 8 9 6
4 5 2 5 5 6 3 11 9 9 8 8 6 7 5 2 3 5 5 5 5 5 7 10 11 12 13 12 11 11 9 10 9 9 8 8 8 9 9 10 10 11 11 9 9 9 10 10 9
1 4 6 6 5 5 3 18 4 5 2 8 7 6 3 3 3 5 4 4 4 7 8 10 10 11 11 11 12 12 11 11 10 10 10 10 11 9 8 10 10 11 10 11 12 12 10 11 11
Wind_Direction
343 354 78 42 60 61 293 241 290 163 178 173 113 156 194 120 162 189 221 177 158 153 157 155 152 151 150 141 136 133 125 114 105 99 92 87 86 87 85 80 80 80 78 81 80 79 75 95 88
330 178 48 86 85 67 260 247 208 210 141 129 105 100 121 158 183 142 139 184 162 154 154 150 147 148 146 141 139 137 128 121 107 103 98 95 91 85 86 83 81 84 84 85 84 84 87 86 87
187 44 81 88 102 183 214 213 180 121 148 158 109 356 148 184 186 166 190 156 151 152 153 153 149 150 147 144 144 143 135 128 115 109 104 99 94 89 85 84 82 82 83 82 84 86 86 89 86
40 20 45 82 228 238 216 213 165 131 261 244 137 139 279 220 178 145 141 151 151 154 156 157 154 148 148 148 148 146 143 133 119 115 110 102 97 93 90 90 85 85 87 86 85 85 84 86 79
34 47 63 85 269 258 255 231 165 161 180 169 201 198 242 236 239 247 163 156 155 159 162 163 156 154 153 152 153 150 144 133 125 125 118 109 103 98 94 90 89 90 91 92 88 88 85 82 80
42 93 63 220 255 256 253 164 154 185 157 157 143 152 235 313 187 152 161 164 165 165 170 169 168 162 162 159 157 154 146 140 130 131 123 114 107 101 97 95 94 93 91 89 88 85 82 80 78
115 86 197 166 245 304 211 148 172 180 169 237 150 155 247 243 179 133 145 141 156 183 168 174 174 174 171 165 160 157 150 144 135 134 126 117 111 105 102 99 97 94 92 88 85 84 84 82 80
102 90 132 227 199 249 192 183 163 162 224 76 178 207 223 202 144 121 117 120 126 140 168 174 172 176 178 169 157 156 152 146 140 135 130 123 113 107 105 99 101 98 94 93 92 90 88 85 83
125 68 200 225 155 240 145 185 147 178 130 233 209 201 190 115 130 124 130 133 143 141 162 159 178 176 173 163 164 165 160 158 151 147 144 140 131 122 116 109 106 103 100 97 95 94 93 89 83
87 118 218 203 194 222 197 183 175 161 158 245 271 239 136 150 174 167 176 180 181 175 175 166 168 172 168 153 158 162 166 163 158 155 156 143 132 125 116 101 103 107 105 103 100 97 90 85 82
150 184 200 230 222 201 187 215 175 163 218 218 210 201 175 181 193 191 195 191 188 172 168 172 153 149 165 159 163 168 156 147 153 154 152 133 126 128 121 116 106 94 96 103 99 95 85 86 87
147 201 183 265 201 151 192 130 210 205 222 195 220 181 164 187 199 201 199 191 175 179 178 170 167 171 166 159 180 177 165 168 157 162 153 151 145 142 136 122 118 106 99 103 95 90 95 87 83
146 244 233 304 202 234 251 235 232 246 242 237 147 185 198 200 210 214 195 185 179 194 188 187 174 179 185 188 191 192 169 176 170 168 164 159 155 156 138 131 126 123 117 109 108 100 93 90 85
146 249 283 281 240 251 221 268 171 259 255 215 210 228 221 211 211 177 194 207 202 190 196 183 195 196 190 200 195 201 208 180 176 175 173 167 160 157 147 138 130 130 125 117 110 109 104 96 91
91 330 325 241 223 242 171 283 236 236 177 247 237 247 241 232 205 216 212 210 197 200 184 193 193 195 202 213 215 203 191 195 180 178 173 171 166 162 151 141 136 137 133 122 117 108 104 101 98
52 49 353 297 150 308 168 272 272 2 216 255 250 251 253 244 231 232 220 217 196 182 188 181 186 190 196 199 196 207 187 179 188 170 174 173 169 161 154 145 141 133 118 126 126 124 114 107 102
7 228 208 311 204 124 165 271 263 6 234 275 264 253 245 259 243 235 221 213 205 194 180 190 188 186 188 178 162 170 172 156 151 202 160 171 160 158 151 151 142 143 130 142 130 124 125 118 110
200 212 240 242 202 174 213 263 267 252 253 254 267 266 251 243 244 229 211 206 194 189 188 182 181 178 170 149 135 129 126 140 129 152 157 156 158 156 144 143 143 146 134 141 129 126 119 119 119
136 181 231 251 248 192 232 248 267 264 237 257 260 250 250 247 249 215 209 195 183 189 187 186 178 176 164 162 163 173 174 165 143 146 143 139 147 150 150 143 147 151 153 148 142 128 131 122 130
158 177 248 275 249 185 273 254 254 260 246 238 249 254 245 242 246 229 190 186 194 191 189 184 187 177 180 175 164 147 137 133 115 142 148 144 148 158 153 154 150 159 141 139 147 145 141 130 178
211 191 213 228 327 248 312 276 242 280 253 258 250 248 254 245 250 225 192 203 192 191 191 189 187 180 178 152 127 98 95 90 124 137 179 150 152 141 153 155 153 159 158 161 161 159 155 159 193
238 205 185 194 77 252 194 287 265 249 253 254 259 246 250 241 244 223 202 202 200 205 186 180 183 176 176 159 171 175 177 163 184 168 141 126 142 166 136 138 153 158 169 160 164 162 160 154 161
231 134 166 159 184 344 207 220 266 35 259 255 264 261 256 250 234 233 211 213 202 177 179 177 176 181 173 176 187 187 181 158 137 126 130 138 125 120 155 149 157 156 167 154 160 160 157 157 148
141 84 55 52 88 270 197 192 225 189 213 265 267 340 2 306 274 273 246 170 156 154 173 178 181 182 171 182 181 190 179 149 149 148 158 159 139 116 119 127 139 153 152 156 157 151 158 158 149
145 109 299 320 355 243 16 242 259 269 236 229 247 116 108 340 318 311 199 169 151 165 172 181 194 191 177 183 186 191 170 168 174 166 171 164 160 177 176 165 154 152 145 140 145 156 158 158 154
197 164 171 211 213 275 24 242 243 233 257 258 287 293 251 291 310 263 237 203 176 173 175 181 194 190 180 182 184 176 170 176 180 177 174 181 184 178 167 158 149 146 141 139 138 131 125 125 125
190 204 191 56 88 7 225 285 286 271 277 271 258 239 261 259 274 263 205 197 181 177 185 187 197 200 181 181 168 166 163 163 164 166 165 171 158 140 157 155 143 146 138 140 135 132 129 126 123
165 170 91 324 199 253 264 270 230 248 248 256 220 224 254 229 234 229 209 204 197 185 184 191 192 189 177 170 166 168 170 168 162 157 163 161 144 145 153 147 141 139 130 130 127 122 124 118 111
153 205 168 136 154 182 295 260 214 222 209 191 192 174 197 180 209 232 223 208 202 176 184 196 182 174 174 170 169 165 168 163 158 166 160 157 141 154 162 151 147 142 137 133 127 126 130 126 128
344 238 161 142 219 243 167 264 166 214 144 161 177 217 221 167 226 229 225 204 210 204 183 191 188 186 183 169 166 172 164 162 165 167 165 160 155 157 160 148 148 142 150 144 144 144 148 146 146